TimeMDT,TemperatureF,Dew PointF,Humidity,Sea Level PressureIn,VisibilityMPH,Wind Direction,Wind SpeedMPH,Gust SpeedMPH,PrecipitationIn,Events,Conditions,WindDirDegrees,DateUTC
12:53 AM,43.0,3.9,20,29.92,10.0,Calm,Calm,-,N/A,,Clear,0,2014-04-11 06:53:00
1:53 AM,51.1,3.9,15,29.88,10.0,Calm,Calm,-,N/A,,Clear,0,2014-04-11 07:53:00
2:53 AM,48.0,5.0,17,29.88,10.0,East,3.5,-,N/A,,Clear,100,2014-04-11 08:53:00
3:53 AM,52.0,3.9,14,29.86,10.0,Calm,Calm,-,N/A,,Clear,0,2014-04-11 09:53:00
4:53 AM,48.0,5.0,17,29.88,10.0,South,4.6,-,N/A,,Clear,170,2014-04-11 10:53:00
5:53 AM,39.9,7.0,26,29.93,10.0,Calm,Calm,-,N/A,,Clear,0,2014-04-11 11:53:00
6:53 AM,34.0,8.1,34,29.98,10.0,Calm,Calm,-,N/A,,Clear,0,2014-04-11 12:53:00
7:53 AM,39.9,10.0,29,30.01,10.0,Calm,Calm,-,N/A,,Clear,0,2014-04-11 13:53:00
8:53 AM,46.0,9.0,22,30.01,10.0,Calm,Calm,-,N/A,,Clear,0,2014-04-11 14:53:00
9:53 AM,55.0,9.0,16,30.02,10.0,Calm,Calm,-,N/A,,Clear,0,2014-04-11 15:53:00
10:53 AM,66.0,9.0,11,29.95,10.0,Variable,3.5,-,N/A,,Clear,0,2014-04-11 16:53:00
11:53 AM,69.1,-0.0,6,29.93,10.0,Variable,3.5,-,N/A,,Clear,0,2014-04-11 17:53:00
12:53 PM,70.0,-2.0,6,29.90,10.0,SW,16.1,21.9,N/A,,Clear,220,2014-04-11 18:53:00
1:53 PM,69.1,-2.0,6,29.87,10.0,WSW,10.4,24.2,N/A,,Clear,240,2014-04-11 19:53:00
2:53 PM,71.1,-2.9,5,29.84,10.0,WSW,12.7,24.2,N/A,,Clear,250,2014-04-11 20:53:00
3:53 PM,68.0,-8.0,5,29.83,10.0,WSW,15.0,26.5,N/A,,Clear,250,2014-04-11 21:53:00
4:53 PM,69.1,-0.0,6,29.81,10.0,WSW,13.8,-,N/A,,Clear,250,2014-04-11 22:53:00
5:53 PM,68.0,-0.0,7,29.83,10.0,West,13.8,23.0,N/A,,Partly Cloudy,270,2014-04-11 23:53:00
6:53 PM,66.9,-2.9,6,29.85,10.0,WSW,16.1,26.5,N/A,,Clear,240,2014-04-12 00:53:00
7:53 PM,63.0,5.0,10,29.84,10.0,SW,8.1,-,N/A,,Partly Cloudy,230,2014-04-12 01:53:00
8:53 PM,55.0,3.9,13,29.86,10.0,SSW,6.9,-,N/A,,Clear,200,2014-04-12 02:53:00
9:53 PM,53.1,5.0,14,29.85,10.0,Calm,Calm,-,N/A,,Clear,0,2014-04-12 03:53:00
10:53 PM,44.1,7.0,22,29.83,10.0,North,4.6,-,N/A,,Clear,360,2014-04-12 04:53:00
11:53 PM,48.0,8.1,20,29.80,10.0,North,-9999.0,-,N/A,,Clear,0,2014-04-12 05:53:00